This is the latest recevied weather packets stored in our database for station/object N7NKE. If no packets are shown the sender has not sent any weather packets the latest 10 day(s).
| Time | Temp. | Humidity | Pressure | Rain* | Wind** | Luminosity | Snow |
|---|---|---|---|---|---|---|---|
| 1778145605 | 11.67° C | 76% | 1021.4 hPa | 0 mm | - | 0 W/m² | - |
| 1778144405 | 11.67° C | 76% | 1021.6 hPa | 0 mm | - | 0 W/m² | - |
| 1778143805 | 11.67° C | 75% | 1021.6 hPa | 0 mm | - | 0 W/m² | - |
| 1778137205 | 12.22° C | 79% | 1021.4 hPa | 0 mm | - | 0 W/m² | - |
| 1778136605 | 12.22° C | 80% | 1021.3 hPa | 0 mm | - | 0 W/m² | - |
| 1778130905 | 12.22° C | 81% | 1021.2 hPa | 0 mm | - | 0 W/m² | - |
| 1778130605 | 12.78° C | 81% | 1021.2 hPa | 0 mm | - | 0 W/m² | - |
| 1778128504 | 13.33° C | 78% | 1021.2 hPa | 0 mm | - | 0 W/m² | - |
| 1778125804 | 13.89° C | 76% | 1020.9 hPa | 0 mm | - | 0 W/m² | - |
| 1778124305 | 14.44° C | 74% | 1020.6 hPa | 0 mm | - | 0 W/m² | - |
| 1778123705 | 15° C | 73% | 1020.5 hPa | 0 mm | - | 0 W/m² | - |
| 1778123104 | 15° C | 72% | 1020.4 hPa | 0 mm | - | 11 W/m² | - |
| 1778122805 | 15° C | 72% | 1020.3 hPa | 0 mm | - | 16 W/m² | - |
| 1778121304 | 16.11° C | 72% | 1020.1 hPa | 0 mm | - | 39 W/m² | - |
| 1778120705 | 16.67° C | 70% | 1020 hPa | 0 mm | - | 51 W/m² | - |
| 1778119205 | 17.22° C | 69% | 1019.9 hPa | 0 mm | - | 172 W/m² | - |
| 1778113205 | 19.44° C | 69% | 1019.9 hPa | 0 mm | - | 216 W/m² | - |
| 1778111704 | 18.89° C | 67% | 1019.9 hPa | 0 mm | - | 225 W/m² | - |
| 1778110205 | 19.44° C | 67% | 1019.8 hPa | 0 mm | - | 332 W/m² | - |
| 1778108704 | 20° C | 69% | 1019.9 hPa | 0 mm | - | 274 W/m² | - |
| 1778108104 | 20° C | 69% | 1019.9 hPa | 0 mm | - | 332 W/m² | - |
| 1778107804 | 20° C | 69% | 1019.9 hPa | 0 mm | - | 283 W/m² | - |
| 1778106304 | 20° C | 69% | 1020 hPa | 0 mm | - | 265 W/m² | - |
| 1778106004 | 20° C | 68% | 1020 hPa | 0 mm | - | 255 W/m² | - |
| 1778105104 | 20° C | 70% | 1020 hPa | 0 mm | - | 376 W/m² | - |
* Rain latest hour (hover to see other rain measurements)
** Current wind speed in m/s (hover to see current wind gust speed)